Danbury, CT

8:21 AM EDT on July 22, 2017 (GMT -0400)
Danbury Municipal

Weather History for KDXR - January, 2013

Change the Weather History Date:

Saturday, January 12, 2013

  Actual Average Record
Temperature  
Mean Temperature 40 °F -  
Max Temperature 44 °F 32 °F 61 °F (2017)
Min Temperature 37 °F 14 °F -13 °F (1981)
Degree Days  
Heating Degree Days 24    
Moisture  
Dew Point 40 °F    
Average Humidity 99    
Maximum Humidity 100    
Minimum Humidity 93    
Precipitation  
Precipitation 0.04 in - - ()
Sea Level Pressure  
Sea Level Pressure 30.14 in    
Wind  
Wind Speed 1 mph (East)    
Max Wind Speed 5 mph    
Max Gust Speed -    
Visibility 1 miles    
Events Fog , Rain    
Averages and records for this station are not official NWS values.
T = Trace of Precipitation, MM = Missing Value Source: NWS Daily Summary

Daily Weather History Graph

Daily Weather History Graph

Search for Another Location

Airport or City:

Trip Planner

Search our weather history database for the weather conditions in past years. The results will help you decide how hot, cold, wet, or windy it might be!

Date:

Astronomy

Jan. 12, 2013 Rise Set
Actual Time 7:18 AM EST 4:46 PM EST
Civil Twilight 6:48 AM EST 5:17 PM EST
Nautical Twilight 6:13 AM EST 5:51 PM EST
Astronomical Twilight 5:40 AM EST 6:24 PM EST
Moon 7:34 AM EST (1/12) 6:13 PM EST (1/12)
Length of Visible Light 10h 28m
Length of Day
9h 27m
New Moon, 1% of the Moon is Illuminated
Jan 12
New Moon
Jan 18
First Quarter
Jan 26
Full
Feb 3
Last Quarter
Feb 10
New

Hourly Weather History & Observations

Time (EST) Temp. Windchill Dew Point Humidity Pressure Visibility Wind Dir Wind Speed Gust Speed Precip Events Conditions
12:20 AM 37.4 °F 33.8 °F 37.4 °F 100% 30.12 in 1.2 mi ENE 4.6 mph - 0.00 in Rain Light Rain
12:43 AM 37.4 °F - 37.4 °F 100% 30.12 in 0.8 mi Calm Calm - 0.01 in Rain Light Rain
12:51 AM 37.4 °F 34.9 °F 37.4 °F 100% 30.12 in 1.2 mi NNE 3.5 mph - 0.01 in Rain Light Rain
12:53 AM 37.9 °F - 37.9 °F 100% 30.13 in 1.5 mi Calm Calm - 0.01 in Rain Light Rain
1:08 AM 37.4 °F - 37.4 °F 100% 30.13 in 2.0 mi Calm Calm - 0.00 in   Overcast
1:22 AM 37.4 °F - 37.4 °F 100% 30.12 in 1.5 mi Calm Calm - 0.00 in Rain Light Rain
1:34 AM 37.4 °F - 37.4 °F 100% 30.13 in 1.0 mi Calm Calm - 0.01 in Rain Light Rain
1:43 AM 37.4 °F - 37.4 °F 100% 30.13 in 1.5 mi Calm Calm - 0.01 in Rain Light Rain
1:53 AM 37.9 °F - 37.9 °F 100% 30.14 in 1.8 mi Calm Calm - 0.02 in Rain Light Rain
2:00 AM 37.4 °F - 37.4 °F 100% 30.13 in 2.0 mi Calm Calm - 0.00 in Rain Light Rain
2:20 AM 37.4 °F 34.9 °F 37.4 °F 100% 30.12 in 1.8 mi ESE 3.5 mph - 0.00 in   Overcast
2:29 AM 37.4 °F - 37.4 °F 100% 30.12 in 2.0 mi Calm Calm - 0.00 in   Overcast
2:53 AM 37.9 °F 35.5 °F 37.9 °F 100% 30.13 in 2.0 mi East 3.5 mph - 0.01 in   Overcast
3:53 AM 39.0 °F - 39.0 °F 100% 30.13 in 2.5 mi Calm Calm - 0.00 in   Overcast
4:19 AM 39.2 °F - 39.2 °F 100% 30.11 in 3.0 mi Calm Calm - N/A   Overcast
4:29 AM 39.2 °F 35.9 °F 37.4 °F 93% 30.11 in 2.5 mi ESE 4.6 mph - N/A   Overcast
4:53 AM 39.0 °F - 39.0 °F 100% 30.12 in 3.0 mi Calm Calm - N/A   Overcast
5:20 AM 39.2 °F - 39.2 °F 100% 30.11 in 2.0 mi Calm Calm - N/A   Overcast
5:28 AM 39.2 °F - 39.2 °F 100% 30.11 in 1.5 mi Calm Calm - N/A   Overcast
5:53 AM 39.0 °F - 39.0 °F 100% 30.12 in 1.8 mi Calm Calm - N/A   Overcast
6:44 AM 37.4 °F - 37.4 °F 100% 30.14 in 0.8 mi Calm Calm - N/A   Mist
6:53 AM 37.9 °F - 37.9 °F 100% 30.15 in 0.8 mi Calm Calm - N/A   Mist
7:53 AM 39.9 °F - 39.0 °F 97% 30.16 in 0.8 mi Calm Calm - N/A   Overcast
8:53 AM 39.9 °F - 39.9 °F 100% 30.17 in 1.0 mi Calm Calm - N/A   Overcast
9:53 AM 41.0 °F 39.0 °F 39.9 °F 96% 30.17 in 1.0 mi East 3.5 mph - N/A   Overcast
10:53 AM 41.0 °F 39.0 °F 41.0 °F 100% 30.16 in 1.0 mi East 3.5 mph - N/A   Overcast
11:13 AM 42.8 °F 41.1 °F 41.0 °F 93% 30.14 in 0.8 mi ENE 3.5 mph - N/A   Overcast
11:22 AM 42.8 °F 41.1 °F 42.8 °F 100% 30.14 in 1.0 mi NE 3.5 mph - N/A   Overcast
11:34 AM 42.8 °F - 42.8 °F 100% 30.13 in 0.8 mi Calm Calm - N/A   Overcast
11:53 AM 42.1 °F - 42.1 °F 100% 30.14 in 0.5 mi Calm Calm - N/A Fog Fog
12:53 PM 43.0 °F - 43.0 °F 100% 30.15 in 0.8 mi Calm Calm - N/A   Overcast
1:53 PM 44.1 °F - 43.0 °F 96% 30.16 in 0.8 mi Calm Calm - N/A   Overcast
1:57 PM 44.6 °F - 42.8 °F 93% 30.15 in 1.2 mi Calm Calm - N/A   Overcast
2:05 PM 44.6 °F - 42.8 °F 93% 30.15 in 3.0 mi Calm Calm - N/A   Overcast
2:53 PM 44.1 °F - 43.0 °F 96% 30.15 in 5.0 mi Calm Calm - N/A   Overcast
3:53 PM 43.0 °F - 43.0 °F 100% 30.16 in 3.0 mi Calm Calm - N/A   Overcast
4:05 PM 42.8 °F 41.1 °F 42.8 °F 100% 30.15 in 2.5 mi SE 3.5 mph - N/A   Overcast
4:19 PM 42.8 °F - 42.8 °F 100% 30.14 in 1.2 mi Calm Calm - N/A   Overcast
4:27 PM 42.8 °F 41.1 °F 42.8 °F 100% 30.15 in 0.8 mi East 3.5 mph - N/A   Overcast
4:53 PM 43.0 °F - 42.1 °F 97% 30.16 in 0.5 mi Calm Calm - N/A Fog Fog
5:53 PM 41.0 °F - 41.0 °F 100% 30.19 in 0.5 mi Calm Calm - N/A Fog Fog
6:53 PM 41.0 °F - 41.0 °F 100% 30.16 in 0.5 mi Calm Calm - N/A Fog Fog
8:53 PM 39.9 °F - 39.9 °F 100% 30.16 in 0.8 mi Calm Calm - N/A   Overcast
9:53 PM 39.0 °F - 39.0 °F 100% 30.15 in 0.5 mi Calm Calm - N/A Fog Fog
10:53 PM 39.0 °F - 39.0 °F 100% 30.14 in 0.2 mi Calm Calm - N/A Fog Fog
11:08 PM 39.2 °F - 39.2 °F 100% 30.14 in 1.0 mi Calm Calm - N/A   Mist
11:10 PM 39.2 °F - 39.2 °F 100% 30.14 in 1.2 mi Calm Calm - N/A   Overcast
11:18 PM 39.2 °F - 39.2 °F 100% 30.14 in 0.8 mi Calm Calm - N/A   Overcast
11:26 PM 39.2 °F - 39.2 °F 100% 30.14 in 0.8 mi Calm Calm - N/A   Mist
11:53 PM 39.0 °F - 39.0 °F 100% 30.16 in 0.8 mi Calm Calm - N/A   Mist